TimeCST,TemperatureF,Dew PointF,Humidity,Sea Level PressureIn,VisibilityMPH,Wind Direction,Wind SpeedMPH,Gust SpeedMPH,PrecipitationIn,Events,Conditions,WindDirDegrees,DateUTC
12:15 AM,14.2,-0.9,51,30.37,10.0,WNW,11.5,17.3,N/A,,Clear,300,2013-01-22 06:15:00
12:35 AM,14.0,-0.9,52,30.37,10.0,NW,12.7,17.3,N/A,,Clear,310,2013-01-22 06:35:00
12:55 AM,13.8,-0.8,52,30.37,10.0,NW,9.2,-,N/A,,Clear,310,2013-01-22 06:55:00
1:15 AM,13.3,0.1,56,30.38,10.0,NW,6.9,-,N/A,,Clear,320,2013-01-22 07:15:00
1:52 AM,12.2,-0.4,57,30.39,10.0,NW,8.1,-,N/A,,Clear,320,2013-01-22 07:52:00
1:55 AM,12.2,0.7,60,30.39,10.0,NW,6.9,-,N/A,,Clear,320,2013-01-22 07:55:00
2:15 AM,11.7,0.5,61,30.38,10.0,NW,8.1,-,N/A,,Clear,320,2013-01-22 08:15:00
2:35 AM,11.3,1.0,63,30.39,10.0,WNW,9.2,-,N/A,,Clear,300,2013-01-22 08:35:00
2:55 AM,11.5,0.1,60,30.39,10.0,WNW,9.2,-,N/A,,Clear,300,2013-01-22 08:55:00
3:15 AM,11.3,0.1,61,30.39,10.0,WNW,9.2,-,N/A,,Clear,290,2013-01-22 09:15:00
3:35 AM,11.3,-0.0,60,30.39,10.0,WNW,10.4,-,N/A,,Clear,300,2013-01-22 09:35:00
3:55 AM,11.3,0.3,61,30.39,10.0,WNW,9.2,-,N/A,,Clear,290,2013-01-22 09:55:00
4:15 AM,11.3,0.3,61,30.39,10.0,WNW,8.1,16.1,N/A,,Clear,300,2013-01-22 10:15:00
4:35 AM,11.3,0.1,61,30.40,10.0,WNW,9.2,17.3,N/A,,Clear,300,2013-01-22 10:35:00
4:55 AM,10.9,0.3,62,30.41,10.0,WNW,9.2,-,N/A,,Clear,290,2013-01-22 10:55:00
5:15 AM,10.4,0.9,65,30.41,10.0,WNW,3.5,-,N/A,,Clear,290,2013-01-22 11:15:00
5:35 AM,10.0,1.4,68,30.42,10.0,WNW,3.5,-,N/A,,Clear,290,2013-01-22 11:35:00
5:55 AM,10.4,0.3,64,30.42,10.0,WNW,6.9,-,N/A,,Clear,290,2013-01-22 11:55:00
6:15 AM,10.2,0.5,65,30.42,10.0,WNW,4.6,-,N/A,,Clear,290,2013-01-22 12:15:00
6:35 AM,9.9,1.0,68,30.43,10.0,WNW,4.6,-,N/A,,Clear,300,2013-01-22 12:35:00
6:55 AM,9.3,0.5,67,30.44,10.0,West,3.5,-,N/A,,Clear,280,2013-01-22 12:55:00
7:15 AM,9.7,0.5,66,30.44,10.0,West,5.8,-,N/A,,Clear,280,2013-01-22 13:15:00
7:55 AM,11.3,0.5,62,30.44,10.0,WNW,6.9,-,N/A,,Clear,290,2013-01-22 13:55:00
8:15 AM,12.0,-0.0,59,30.45,10.0,West,8.1,-,N/A,,Clear,280,2013-01-22 14:15:00
8:35 AM,12.9,0.1,57,30.46,10.0,WNW,6.9,-,N/A,,Clear,290,2013-01-22 14:35:00
8:55 AM,13.1,-0.9,54,30.46,10.0,West,8.1,-,N/A,,Clear,270,2013-01-22 14:55:00
9:15 AM,13.8,-0.9,52,30.47,10.0,WNW,8.1,-,N/A,,Clear,290,2013-01-22 15:15:00
9:55 AM,14.4,-2.6,47,30.47,10.0,NW,6.9,-,N/A,,Clear,320,2013-01-22 15:55:00
10:15 AM,14.9,-1.7,48,30.47,10.0,WNW,4.6,-,N/A,,Clear,290,2013-01-22 16:15:00
10:35 AM,16.0,-1.7,46,30.47,10.0,West,10.4,-,N/A,,Clear,280,2013-01-22 16:35:00
10:55 AM,16.2,-1.7,45,30.47,10.0,WNW,5.8,-,N/A,,Clear,300,2013-01-22 16:55:00
11:15 AM,16.9,-1.7,44,30.46,10.0,West,8.1,-,N/A,,Clear,280,2013-01-22 17:15:00
11:35 AM,17.2,-0.9,45,30.45,10.0,WSW,9.2,-,N/A,,Clear,240,2013-01-22 17:35:00
11:55 AM,17.6,-1.1,44,30.44,10.0,WSW,10.4,17.3,N/A,,Clear,240,2013-01-22 17:55:00
12:15 PM,18.1,-1.8,41,30.43,10.0,WSW,11.5,-,N/A,,Clear,250,2013-01-22 18:15:00
12:55 PM,18.9,-1.1,42,30.42,10.0,WSW,8.1,-,N/A,,Clear,250,2013-01-22 18:55:00
1:15 PM,19.2,-1.3,41,30.42,10.0,WSW,8.1,-,N/A,,Clear,240,2013-01-22 19:15:00
1:35 PM,19.4,-1.5,40,30.42,10.0,WSW,12.7,-,N/A,,Clear,240,2013-01-22 19:35:00
1:55 PM,19.9,-2.0,38,30.42,10.0,SW,11.5,16.1,N/A,,Clear,230,2013-01-22 19:55:00
2:15 PM,20.5,-0.2,41,30.41,10.0,West,12.7,-,N/A,,Scattered Clouds,260,2013-01-22 20:15:00
2:35 PM,20.1,-2.4,37,30.41,10.0,WSW,10.4,16.1,N/A,,Mostly Cloudy,250,2013-01-22 20:35:00
2:55 PM,19.6,-1.5,40,30.43,10.0,WSW,10.4,17.3,N/A,,Mostly Cloudy,240,2013-01-22 20:55:00
3:15 PM,19.9,-1.5,39,30.41,10.0,WSW,9.2,-,N/A,,Overcast,240,2013-01-22 21:15:00
3:35 PM,19.4,-3.3,37,30.41,10.0,WSW,10.4,-,N/A,,Overcast,250,2013-01-22 21:35:00
3:55 PM,19.2,-1.7,40,30.39,10.0,WSW,9.2,-,N/A,,Mostly Cloudy,250,2013-01-22 21:55:00
4:15 PM,18.5,-1.3,42,30.40,10.0,West,9.2,-,N/A,,Scattered Clouds,260,2013-01-22 22:15:00
4:35 PM,19.0,-0.8,42,30.41,10.0,West,8.1,-,N/A,,Mostly Cloudy,270,2013-01-22 22:35:00
4:55 PM,18.9,0.1,44,30.41,10.0,WSW,5.8,-,N/A,,Overcast,250,2013-01-22 22:55:00
5:15 PM,18.5,1.4,47,30.40,10.0,West,4.6,-,N/A,,Overcast,260,2013-01-22 23:15:00
5:35 PM,18.3,0.7,46,30.40,10.0,West,5.8,-,N/A,,Scattered Clouds,260,2013-01-22 23:35:00
5:55 PM,17.4,1.4,50,30.41,10.0,West,5.8,-,N/A,,Scattered Clouds,260,2013-01-22 23:55:00
6:15 PM,16.5,1.6,52,30.40,10.0,WSW,5.8,-,N/A,,Clear,250,2013-01-23 00:15:00
6:35 PM,18.3,1.8,49,30.41,10.0,West,8.1,-,N/A,,Mostly Cloudy,260,2013-01-23 00:35:00
6:55 PM,18.3,1.4,48,30.40,10.0,WSW,4.6,-,N/A,,Overcast,250,2013-01-23 00:55:00
7:15 PM,17.4,2.1,51,30.39,10.0,WSW,3.5,-,N/A,,Overcast,240,2013-01-23 01:15:00
7:35 PM,17.2,3.7,56,30.40,10.0,WSW,4.6,-,N/A,,Overcast,240,2013-01-23 01:35:00
7:55 PM,18.5,3.2,51,30.39,10.0,WSW,4.6,-,N/A,,Overcast,250,2013-01-23 01:55:00
8:15 PM,19.0,1.4,46,30.40,10.0,West,5.8,-,N/A,,Overcast,260,2013-01-23 02:15:00
8:35 PM,18.9,1.0,46,30.40,10.0,WSW,5.8,-,N/A,,Overcast,250,2013-01-23 02:35:00
8:55 PM,18.5,2.3,49,30.41,10.0,WSW,4.6,-,N/A,,Overcast,250,2013-01-23 02:55:00
9:15 PM,18.1,2.5,51,30.40,10.0,WSW,4.6,-,N/A,,Overcast,240,2013-01-23 03:15:00
9:35 PM,18.0,4.3,55,30.41,10.0,WSW,4.6,-,N/A,,Overcast,240,2013-01-23 03:35:00
9:55 PM,17.6,4.5,56,30.40,10.0,WSW,3.5,-,N/A,,Overcast,240,2013-01-23 03:55:00
10:15 PM,17.6,2.8,53,30.41,10.0,WSW,3.5,-,N/A,,Scattered Clouds,240,2013-01-23 04:15:00
10:55 PM,16.2,4.8,61,30.41,10.0,West,3.5,-,N/A,,Clear,280,2013-01-23 04:55:00
11:15 PM,14.4,5.2,67,30.41,10.0,Calm,Calm,-,N/A,,Clear,0,2013-01-23 05:15:00
11:55 PM,14.7,5.0,65,30.41,10.0,Calm,Calm,-,N/A,,Clear,0,2013-01-23 05:55:00